Flag for U.S.A. Weather past 2 weeks in Jacksonville, North Carolina, U.S.A.

Now
77 °F

Sunny.


Feels Like: 79 °F
Forecast: 62 / 82 °F
Wind: 13 mph from South

Location: Jacksonville - New River

Current Time: May 25, 2015 at 6:59:24 PM

Latest Report: May 25, 2015 at 5:56 PM


Visibility: 10 mi

Pressure: 30.30 "Hg

Humidity: 54%

Dew point: 59 °F

Location of JacksonvilleLocation

Historic Weather in Jacksonville — Graph

°F

Jacksonville temperature yesterday

Maximum temperature yesterday: 80 °F (at 1:56 PM)
Minimum temperature yesterday: 60 °F (at 2:56 AM)
Average temperature yesterday: 70 °F

Past Weeks' High & Low Weather Summary

 TemperatureHumidityPressure
High90 °F (May 19, 2:56 PM)93% (May 10, 7:56 PM)30.42 "Hg (May 10, 7:56 PM)
Low53 °F (May 23, 3:56 AM)31% (May 23, 12:56 PM)29.75 "Hg (May 21, 3:56 PM)
Average72 °F71%30.16 "Hg
* Reported May 10 4:56 PM — May 25 4:56 PM, Jacksonville, Weather by CustomWeather, © 2015

Note: Actual official high and low records may vary slightly from our data, if they occured in-between our weather recording intervals... More about our weather records

Advertising

Jacksonville weather history for previous 24 hours

 ConditionsComfort  
Time TempWeatherWind HumidityBarometerVisibility
4:56 PM
Mon, May 25
78 °FPassing clouds.13 mph54%30.30 "Hg10 mi
3:56 PM79 °FPassing clouds.13 mph50%30.31 "Hg10 mi
2:56 PM79 °FPassing clouds.9 mph50%30.32 "Hg10 mi
1:56 PM80 °FSunny.12 mph44%30.33 "Hg10 mi
12:56 PM79 °FSunny.12 mph47%30.35 "Hg10 mi
11:56 AM78 °FSunny.9 mph45%30.36 "Hg10 mi
11:03 AM78 °FHaze.13 mph46%30.35 "Hg6 mi
10:56 AM78 °FSunny.9 mph46%30.36 "Hg7 mi
9:56 AM77 °FSunny.8 mph52%30.36 "Hg10 mi
8:56 AM74 °FSunny.7 mph64%30.36 "Hg10 mi
7:56 AM69 °FSunny.No wind84%30.35 "Hg10 mi
6:56 AM60 °FClear.No wind93%30.35 "Hg10 mi
5:56 AM59 °FClear.No wind93%30.33 "Hg9 mi
4:56 AM60 °FClear.No wind93%30.33 "Hg10 mi
3:56 AM61 °FClear.No wind90%30.33 "Hg10 mi
2:56 AM61 °FClear.No wind90%30.33 "Hg10 mi
1:56 AM64 °FClear.No wind84%30.33 "Hg10 mi
12:56 AM65 °FClear.3 mph85%30.34 "Hg10 mi
11:56 PM
Sun, May 24
65 °FClear.3 mph85%30.35 "Hg10 mi
10:56 PM65 °FClear.3 mph85%30.36 "Hg10 mi
9:56 PM68 °FClear.3 mph76%30.35 "Hg10 mi
8:56 PM70 °FSunny.5 mph71%30.34 "Hg10 mi
7:56 PM72 °FSunny.7 mph64%30.34 "Hg10 mi
6:56 PM75 °FSunny.10 mph55%30.33 "Hg10 mi
Weather by CustomWeather, © 2015

See weather overviewHow to use our weather pages